Location: Central Falls
(41.8900°N, 71.3929°W)
Time: 21:21:10
(UTC+00:00)

Vanguard 3 - Pass Details

Date: 05 December 2023
Orbit: 508 x 3239 km, 33.4° (Epoch: 28 February)

Event Time Altitude Azimuth Distance (km) Brightness Sun altitude
Rises 02:33:13 0° 236° (SW) 6,284 11.9 -57.8°
Reaches altitude 10° 02:38:20 10° 230° (SW) 4,841 11.1 -58.6°
Enters shadow 02:39:57 14° 227° (SW) 4,375 10.9 -58.9°
Maximum altitude 02:49:26 38° 169° (S) 2,163 - -60.4°
Drops below altitude 10° 02:56:06 10° 103° (ESE) 2,908 - -61.4°
Sets 02:58:25 0° 95° (E) 3,593 - -61.7°
